Tracking 19794 objects as of 22-Jul-2019
HD Live streaming from Space Station
objects crossing your sky now

INTELSAT 502

Track INTELSAT 502 now!
INTELSAT 502 is classified as:


NORAD ID: 12089
Int'l Code: 1980-098A
Perigee: 36,147.3 km
Apogee: 36,225.0 km
Inclination: 14.6 °
Period: 1,456.2 minutes
Semi major axis: 42557 km
RCS: 13.5237 m2 (large)
Launch date: December 6, 1980
Source: International Telecommunications Satellite Organization (ITSO)
Launch site: AIR FORCE EASTERN TEST RANGE (AFETR)
aabbcc
Your satellite tracking list
Your tracking list is empty




NASA's NSSDC Master Catalog

Two Line Element Set (TLE):
1 12089U 80098A   19202.86854998 -.00000032 +00000-0 +00000-0 0  9992
2 12089 014.5619 346.7996 0009132 273.1658 082.0733 00.98888045108775
Source of the keplerian elements: AFSPC